COSMOS 2613

导读

COSMOS 2613(NORAD编号68763)是隶属于独联体(CIS)的空间物体,国际标识为2026-083J,于2026年4月16日从普列谢茨克航天发射场(PKMTR)发射升空。该卫星运行在近地轨道(LEO)的太阳同步轨道(SSO)上,目前仍在轨运行,尚未陨落。 它属于俄罗斯/前苏联的宇宙(Cosmos/Kosmos)卫星系列,该系列自1962年起持续发射,涵盖科学研究、通信、军事侦察等多种用途,命名方式通常以编号区分,部分卫星用途未公开披露,当前该卫星物体类型暂未明确标注。

Basic Information
目录编号:
68763
目录名称:
COSMOS 2613
国际标识:
2026-083J
轨道中心:
EARTH
卫星名称:
COSMOS 2613
卫星全名:
COSMOS 2613
卫星状态:
在轨 (已飞行59 天)
发射日期:
2026-04-16 UTC
国别 :
俄罗斯(独联体) (CIS)
星等 :
--
Orbit Information
数据来源 国际轨道数据
星历时间: 2026-06-15T01:09:07+0800
6小时前
查看轨道信息
半长轴: 6922.023km
偏心率: 0.0011124
轨道倾角: 97.780°
近地点辐角 66.791°
升交点赤经 303.720°
平近点角 293.449°
近地点: 536.185km
远地点: 551.587km
周期: 95.523分钟
每日圈数: 15.074859
Detailed Information
使用方式:
暂无
2D Orbit Map
3D Orbit Map
Orbit Altitude Analysis Chart
Orbit Inclination Analysis Chart
Orbit Comprehensive Analysis Chart
View Comprehensive Chart